Location: Newark
(56.0692°N, 115.8617°E)
Time: 07:57:56
(UTC+00:00)

Vanguard 2 - All Passes

Search period start: 26 May 2020 00:00
Search period end: 05 June 2020 00:00
Orbit: 553 x 2938 km, 32.9° (Epoch: 25 May)

Date Brightness Start Highest point End Pass type
(mag) Time Alt. Az. Time Alt. Az. Time Alt. Az.
30 May - 11:51:32 10° S 11:53:12 11° S 11:54:45 10° SSE daylight
31 May - 12:07:01 10° SSW 12:10:35 12° S 12:13:38 10° SSE daylight
01 Jun - 10:16:57 10° S 10:20:13 11° SSE 10:23:08 10° SSE daylight
01 Jun - 12:23:32 10° SSW 12:27:56 14° S 12:31:35 10° SSE daylight
02 Jun - 10:32:00 10° SSW 10:37:35 14° S 10:42:13 10° SE daylight
02 Jun - 12:40:30 10° SW 12:45:15 14° S 12:49:09 10° SSE daylight
03 Jun - 08:44:52 10° SSE 08:46:49 10° SSE 08:48:41 10° SSE daylight
03 Jun - 10:48:04 10° SSW 10:54:58 17° S 11:00:25 10° SE daylight
03 Jun - 12:57:48 10° SW 13:02:32 14° SSW 13:06:24 10° SSE daylight
04 Jun - 08:58:01 10° S 09:04:07 14° SSE 09:09:22 10° SE daylight
04 Jun - 11:04:38 10° SW 11:12:19 18° S 11:18:15 10° SE daylight
04 Jun - 13:15:27 10° SW 13:19:45 13° SSW 13:23:20 10° S daylight
